• En España
  • Lista de países
  • Para 7 días
  • Temperatura del agua
  • Mapa Satelital
  • El tiempo en el mapa
  • Informadores
  • user-avatar
    Iniciar sesión

    Tiempo cada hora Lubango

    Hoy, 26 Febrero, Lunes

    Tiempo Temperatura Precipitaciones Viento Presión Humedad
    00:00 +15°C° 0 mm 1 mps 608 mmHg 86%
    01:00 +15°C° 0 mm 1 mps 608 mmHg 88%
    02:00 +14°C° 0 mm 1 mps 608 mmHg 88%
    03:00 +14°C° 0 mm 1 mps 607 mmHg 88%
    04:00 +12°C° 0 mm 0 mps 607 mmHg 88%
    05:00 +13°C° 0 mm 0 mps 607 mmHg 85%
    06:00 +15°C° 0 mm 1 mps 608 mmHg 82%
    07:00 +15°C° 0 mm 1 mps 608 mmHg 78%
    08:00 +19°C° 0 mm 1 mps 609 mmHg 68%
    09:00 +21°C° 0 mm 1 mps 610 mmHg 58%
    10:00 +24°C° 0 mm 1 mps 611 mmHg 47%
    11:00 +25°C° 0 mm 1 mps 611 mmHg 45%
    12:00 +26°C° 0 mm 2 mps 611 mmHg 42%
    13:00 +27°C° 0 mm 2 mps 611 mmHg 39%
    14:00 +26°C° 0,3 mm 2 mps 610 mmHg 43%
    15:00 +25°C° 0,3 mm 3 mps 610 mmHg 47%
    16:00 +24°C° 0,3 mm 3 mps 609 mmHg 51%
    17:00 +21°C° 0,5 mm 3 mps 609 mmHg 59%
    18:00 +19°C° 0,5 mm 2 mps 608 mmHg 67%
    19:00 +17°C° 0,5 mm 2 mps 608 mmHg 75%
    20:00 +17°C° 0,1 mm 2 mps 608 mmHg 79%
    21:00 +16°C° 0,1 mm 1 mps 608 mmHg 82%
    22:00 +15°C° 0,1 mm 1 mps 608 mmHg 86%
    23:00 +15°C° 0 mm 1 mps 608 mmHg 88%

    Mañana, 27 Febrero, Martes

    Tiempo Temperatura Precipitaciones Viento Presión Humedad
    00:00 +14°C° 0 mm 1 mps 608 mmHg 90%
    01:00 +14°C° 0 mm 1 mps 608 mmHg 92%
    02:00 +13°C° 0 mm 1 mps 607 mmHg 93%
    03:00 +12°C° 0 mm 0 mps 607 mmHg 93%
    04:00 +12°C° 0 mm 0 mps 607 mmHg 94%
    05:00 +12°C° 0 mm 0 mps 607 mmHg 91%
    06:00 +13°C° 0 mm 0 mps 608 mmHg 88%
    07:00 +13°C° 0 mm 0 mps 608 mmHg 85%
    08:00 +16°C° 0 mm 0 mps 609 mmHg 73%
    09:00 +21°C° 0 mm 1 mps 610 mmHg 62%
    10:00 +23°C° 0 mm 1 mps 611 mmHg 50%
    11:00 +24°C° 0,1 mm 1 mps 611 mmHg 47%
    12:00 +25°C° 0,1 mm 1 mps 611 mmHg 45%
    13:00 +26°C° 0,1 mm 1 mps 611 mmHg 42%
    14:00 +26°C° 0,6 mm 2 mps 610 mmHg 44%
    15:00 +25°C° 0,6 mm 2 mps 609 mmHg 47%
    16:00 +25°C° 0,6 mm 2 mps 609 mmHg 49%
    17:00 +23°C° 0,3 mm 2 mps 608 mmHg 56%
    18:00 +20°C° 0,3 mm 2 mps 608 mmHg 62%
    19:00 +18°C° 0,3 mm 2 mps 608 mmHg 68%
    20:00 +19°C° 0 mm 1 mps 608 mmHg 71%
    21:00 +18°C° 0 mm 1 mps 608 mmHg 73%
    22:00 +16°C° 0 mm 1 mps 609 mmHg 76%
    23:00 +16°C° 0,1 mm 1 mps 609 mmHg 78%

    Pasado mañana, 28 Febrero, Miércoles

    Tiempo Temperatura Precipitaciones Viento Presión Humedad
    00:00 +16°C° 0,1 mm 1 mps 608 mmHg 79%
    01:00 +15°C° 0,1 mm 1 mps 608 mmHg 81%
    02:00 +15°C° 0,1 mm 1 mps 608 mmHg 82%
    03:00 +15°C° 0,1 mm 1 mps 608 mmHg 83%
    04:00 +14°C° 0,1 mm 0 mps 607 mmHg 85%
    05:00 +14°C° 0,2 mm 0 mps 608 mmHg 83%
    06:00 +14°C° 0,2 mm 0 mps 608 mmHg 82%
    07:00 +15°C° 0,2 mm 0 mps 609 mmHg 81%
    08:00 +18°C° 0,2 mm 1 mps 609 mmHg 75%
    09:00 +20°C° 0,2 mm 1 mps 610 mmHg 69%
    10:00 +21°C° 0,2 mm 1 mps 611 mmHg 63%
    11:00 +22°C° 0,7 mm 1 mps 611 mmHg 61%
    12:00 +21°C° 0,7 mm 2 mps 610 mmHg 58%
    13:00 +23°C° 0,7 mm 2 mps 610 mmHg 56%
    14:00 +21°C° 0,7 mm 2 mps 610 mmHg 58%
    15:00 +21°C° 0,7 mm 2 mps 609 mmHg 60%
    16:00 +20°C° 0,7 mm 3 mps 609 mmHg 62%
    17:00 +19°C° 0,2 mm 2 mps 608 mmHg 66%
    18:00 +18°C° 0,2 mm 2 mps 608 mmHg 71%
    19:00 +16°C° 0,2 mm 2 mps 608 mmHg 75%
    20:00 +16°C° 0 mm 2 mps 609 mmHg 78%
    21:00 +15°C° 0 mm 2 mps 609 mmHg 81%
    22:00 +15°C° 0 mm 2 mps 610 mmHg 84%
    23:00 +14°C° 0 mm 1 mps 609 mmHg 86%

    1 Marzo, Jueves

    Tiempo Temperatura Precipitaciones Viento Presión Humedad
    00:00 +14°C° 0 mm 1 mps 609 mmHg 88%
    01:00 +13°C° 0 mm 1 mps 609 mmHg 90%
    02:00 +13°C° 0 mm 1 mps 608 mmHg 91%
    03:00 +13°C° 0 mm 1 mps 608 mmHg 92%
    04:00 +12°C° 0 mm 1 mps 607 mmHg 93%
    05:00 +13°C° 0 mm 1 mps 608 mmHg 90%
    06:00 +13°C° 0 mm 1 mps 608 mmHg 87%
    07:00 +14°C° 0 mm 1 mps 609 mmHg 84%
    08:00 +16°C° 0 mm 1 mps 610 mmHg 72%
    09:00 +19°C° 0 mm 1 mps 611 mmHg 61%
    10:00 +22°C° 0 mm 1 mps 612 mmHg 49%
    11:00 +23°C° 0 mm 2 mps 612 mmHg 45%
    12:00 +24°C° 0 mm 2 mps 611 mmHg 41%
    13:00 +25°C° 0 mm 2 mps 611 mmHg 37%
    14:00 +25°C° 0,1 mm 3 mps 610 mmHg 38%
    15:00 +25°C° 0,1 mm 3 mps 610 mmHg 40%
    16:00 +24°C° 0,1 mm 3 mps 609 mmHg 42%
    17:00 +21°C° 0 mm 3 mps 609 mmHg 49%
    18:00 +19°C° 0 mm 2 mps 608 mmHg 56%
    19:00 +16°C° 0 mm 2 mps 608 mmHg 64%
    20:00 +16°C° 0 mm 2 mps 608 mmHg 68%
    21:00 +15°C° 0 mm 1 mps 608 mmHg 72%
    22:00 +14°C° 0 mm 1 mps 608 mmHg 75%
    23:00 +13°C° 0 mm 1 mps 607 mmHg 78%

    2 Marzo, Viernes

    Tiempo Temperatura Precipitaciones Viento Presión Humedad
    00:00 +13°C° 0 mm 1 mps 607 mmHg 80%
    01:00 +12°C° 0 mm 1 mps 607 mmHg 82%
    02:00 +12°C° 0 mm 1 mps 606 mmHg 83%
    03:00 +12°C° 0 mm 1 mps 606 mmHg 84%
    04:00 +12°C° 0 mm 1 mps 606 mmHg 86%
    05:00 +12°C° 0 mm 1 mps 606 mmHg 83%
    06:00 +13°C° 0 mm 1 mps 607 mmHg 81%
    07:00 +13°C° 0 mm 1 mps 608 mmHg 79%
    08:00 +16°C° 0 mm 1 mps 609 mmHg 66%
    09:00 +19°C° 0 mm 1 mps 610 mmHg 54%
    10:00 +22°C° 0 mm 1 mps 611 mmHg 41%
    11:00 +23°C° 0 mm 2 mps 611 mmHg 37%
    12:00 +24°C° 0 mm 2 mps 610 mmHg 34%
    13:00 +26°C° 0 mm 3 mps 610 mmHg 30%
    14:00 +25°C° 0 mm 3 mps 610 mmHg 31%
    15:00 +25°C° 0 mm 3 mps 609 mmHg 33%
    16:00 +25°C° 0 mm 4 mps 609 mmHg 34%
    17:00 +21°C° 0 mm 3 mps 608 mmHg 41%
    18:00 +19°C° 0 mm 2 mps 608 mmHg 47%
    19:00 +16°C° 0 mm 2 mps 607 mmHg 54%
    20:00 +15°C° 0 mm 2 mps 607 mmHg 57%
    21:00 +15°C° 0 mm 1 mps 607 mmHg 60%
    22:00 +14°C° 0 mm 1 mps 607 mmHg 63%
    23:00 +13°C° 0 mm 1 mps 607 mmHg 66%

    3 Marzo, Sábado

    Tiempo Temperatura Precipitaciones Viento Presión Humedad
    00:00 +13°C° 0 mm 1 mps 606 mmHg 70%
    01:00 +12°C° 0 mm 1 mps 606 mmHg 73%
    02:00 +12°C° 0 mm 1 mps 606 mmHg 74%
    03:00 +11°C° 0 mm 1 mps 606 mmHg 75%
    04:00 +11°C° 0 mm 1 mps 605 mmHg 76%
    05:00 +12°C° 0 mm 1 mps 606 mmHg 74%
    06:00 +12°C° 0 mm 1 mps 607 mmHg 72%
    07:00 +13°C° 0 mm 1 mps 607 mmHg 70%
    08:00 +15°C° 0 mm 1 mps 608 mmHg 61%
    09:00 +19°C° 0 mm 1 mps 609 mmHg 52%
    10:00 +20°C° 0 mm 2 mps 610 mmHg 43%
    11:00 +21°C° 0 mm 2 mps 610 mmHg 40%
    12:00 +24°C° 0 mm 2 mps 610 mmHg 37%
    13:00 +25°C° 0 mm 3 mps 610 mmHg 33%
    14:00 +25°C° 0 mm 3 mps 609 mmHg 35%
    15:00 +24°C° 0 mm 3 mps 609 mmHg 36%
    16:00 +24°C° 0 mm 3 mps 608 mmHg 38%
    17:00 +21°C° 0 mm 3 mps 608 mmHg 45%
    18:00 +18°C° 0 mm 2 mps 607 mmHg 53%
    19:00 +16°C° 0 mm 2 mps 607 mmHg 60%
    20:00 +15°C° 0 mm 2 mps 607 mmHg 65%
    21:00 +14°C° 0 mm 1 mps 607 mmHg 70%
    22:00 +14°C° 0 mm 1 mps 607 mmHg 74%
    23:00 +13°C° 0 mm 1 mps 607 mmHg 76%
    Mostrar más